Weather History for KHKS - October, 2011

Change the Weather History Date:

Sunday, October 16, 2011

  Actual Average (KJAN) Record (KJAN)
Temperature  
Mean Temperature 70 °F 65 °F  
Max Temperature 86 °F 77 °F 91 °F (1899)
Min Temperature 54 °F 53 °F 35 °F (1987)
Degree Days  
Heating Degree Days 0 3  
Month to date heating degree days 30  
Since 1 July heating degree days 37  
Cooling Degree Days 5 3  
Month to date cooling degree days 71  
Year to date cooling degree days 2197  
Growing Degree Days 20 (Base 50)    
Moisture  
Dew Point 55 °F    
Average Humidity 67    
Maximum Humidity 97    
Minimum Humidity 32    
Precipitation  
Precipitation 0.00 in 0.13 in 6.35 in (1975)
Month to date precipitation 1.96  
Year to date precipitation 42.27  
Sea Level Pressure  
Sea Level Pressure 30.06 in    
Wind  
Wind Speed 1 mph (SSE)    
Max Wind Speed 8 mph    
Max Gust Speed -    
Visibility 10 miles    
Events      
T = Trace of Precipitation, MM = Missing Value Source: NWS Daily Summary

Daily Weather History Graph

Daily Weather History Graph

Search for Another Location

Airport or City:

Trip Planner

Search our weather history database for the weather conditions in past years. The results will help you decide how hot, cold, wet, or windy it might be!

Date:

Astronomy

Oct. 16, 2011 Rise Set
Actual Time 7:05 AM CDT 6:27 PM CDT
Civil Twilight 6:40 AM CDT 6:52 PM CDT
Nautical Twilight 6:11 AM CDT 7:20 PM CDT
Astronomical Twilight 5:43 AM CDT 7:48 PM CDT
Moon 9:27 PM CDT (10/16) 11:07 AM CDT (10/16)
Length of Visible Light 12h 11m
Length of Day
11h 22m
Waning Gibbous, 82% of the Moon is Illuminated
Oct 16
Waning Gibbous
Oct 19
Last Quarter
Oct 26
New
Nov 2
First Quarter
Nov 10
Full

Hourly Weather History & Observations

Time (CDT) Temp. Heat Index Dew Point Humidity Pressure Visibility Wind Dir Wind Speed Gust Speed Precip Events Conditions
12:53 AM 59.0 °F - 55.9 °F 90% 30.09 in 10.0 mi Calm Calm - N/A   Clear
1:53 AM 59.0 °F - 55.0 °F 87% 30.09 in 10.0 mi ESE 3.5 mph - N/A   Clear
2:53 AM 57.0 °F - 55.0 °F 93% 30.09 in 10.0 mi Calm Calm - N/A   Clear
3:53 AM 57.9 °F - 54.0 °F 87% 30.09 in 10.0 mi Calm Calm - N/A   Clear
4:53 AM 55.9 °F - 54.0 °F 93% 30.10 in 10.0 mi Calm Calm - N/A   Clear
5:53 AM 55.9 °F - 54.0 °F 93% 30.11 in 10.0 mi Calm Calm - N/A   Clear
6:53 AM 54.0 °F - 53.1 °F 97% 30.12 in 9.0 mi Calm Calm - N/A   Clear
7:53 AM 55.9 °F - 54.0 °F 93% 30.12 in 10.0 mi Calm Calm - N/A   Clear
8:53 AM 63.0 °F - 57.9 °F 84% 30.14 in 10.0 mi SSE 3.5 mph - N/A   Clear
9:53 AM 71.1 °F - 59.0 °F 66% 30.14 in 10.0 mi Calm Calm - N/A   Clear
10:53 AM 75.9 °F - 57.0 °F 52% 30.13 in 10.0 mi Calm Calm - N/A   Clear
11:53 AM 81.0 °F - 50.0 °F 34% 30.11 in 10.0 mi Calm Calm - N/A   Clear
12:53 PM 82.9 °F - 50.0 °F 32% 30.08 in 10.0 mi SSW 3.5 mph - N/A   Clear
1:53 PM 84.0 °F - 51.1 °F 32% 30.05 in 10.0 mi Calm Calm - N/A   Clear
2:53 PM 84.9 °F - 52.0 °F 32% 30.02 in 10.0 mi SSW 8.1 mph - N/A   Clear
3:53 PM 86.0 °F 84.0 °F 53.1 °F 32% 30.01 in 10.0 mi SSE 6.9 mph - N/A   Clear
4:53 PM 84.9 °F 83.2 °F 53.1 °F 33% 30.00 in 10.0 mi SSE 6.9 mph - N/A   Clear
5:53 PM 81.0 °F 80.7 °F 55.0 °F 41% 29.98 in 10.0 mi SE 5.8 mph - N/A   Clear
6:53 PM 75.0 °F - 57.9 °F 55% 30.00 in 9.0 mi Calm Calm - N/A   Clear
7:53 PM 69.1 °F - 57.9 °F 68% 30.01 in 10.0 mi Calm Calm - N/A   Clear
8:53 PM 64.0 °F - 57.9 °F 80% 30.01 in 10.0 mi Calm Calm - N/A   Clear
9:53 PM 66.0 °F - 57.9 °F 75% 30.01 in 10.0 mi Calm Calm - N/A   Clear
10:53 PM 64.0 °F - 57.9 °F 80% 30.01 in 10.0 mi Calm Calm - N/A   Clear
11:53 PM 62.1 °F - 57.0 °F 84% 30.00 in 10.0 mi Calm Calm - N/A   Clear